Temperature
17 17 17 17 17 17 17 17 18 18 18 18 18 17 17 17 16 17 17 17 17 17 17 17 17 17 17 17 17 17 17 17 17 17 17 17 17 17 17 17 18 18 18
18 18 17 17 17 18 18 18 18 18 18 18 17 17 17 17 17 16 16 16 16 17 17 17 17 17 17 17 17 17 17 17 17 17 17 17 17 17 17 17 17 17 18
18 18 18 17 18 18 18 18 18 18 17 17 17 17 17 17 16 16 16 16 16 16 16 16 16 16 16 17 17 16 16 16 17 17 17 17 17 17 17 17 17 17 17
18 18 18 17 17 18 18 18 18 17 17 17 17 17 17 17 16 16 16 16 16 16 16 16 16 16 16 16 16 16 16 16 16 16 17 17 17 17 16 16 17 17 17
18 18 18 18 18 18 18 17 17 17 17 17 17 17 17 16 17 17 16 16 16 16 16 16 16 16 16 16 16 16 16 16 16 16 17 17 17 16 16 16 16 17 17
18 18 18 18 18 18 17 17 17 17 17 17 17 16 16 16 16 17 16 16 15 15 16 16 16 16 16 17 17 16 16 16 16 16 16 16 16 16 16 16 16 16 17
18 18 18 17 18 18 17 17 17 17 17 17 16 16 16 16 16 16 16 16 16 16 16 16 16 16 17 17 17 17 17 16 16 16 16 16 16 16 16 16 16 16 16
18 18 18 17 18 17 17 17 17 17 16 16 16 16 16 16 16 16 16 16 15 15 15 15 16 16 16 17 17 17 17 17 16 16 16 16 16 16 16 16 16 16 16
17 17 17 17 17 17 17 17 17 16 16 16 16 16 16 16 16 16 16 16 15 15 15 15 15 15 16 16 17 17 17 17 17 16 16 16 16 16 16 16 16 16 16
17 17 17 17 17 17 17 17 16 16 16 16 16 16 16 17 16 16 16 16 16 15 15 15 15 15 16 16 16 16 16 16 17 17 17 16 16 16 16 16 16 16 16
17 17 17 17 17 16 16 16 16 16 16 16 16 16 16 16 17 17 16 16 16 15 15 15 15 15 15 16 16 16 16 16 16 16 16 16 16 16 16 16 16 16 16
17 16 16 16 16 16 16 16 16 16 16 16 16 15 16 16 16 17 17 16 16 16 15 15 15 15 15 16 16 16 16 16 16 16 16 16 16 16 15 15 15 15 16
16 16 16 16 16 16 16 16 16 16 15 15 15 15 16 16 16 16 17 17 16 16 15 15 15 15 15 16 16 16 16 16 16 16 16 16 16 15 15 15 15 15 15
16 16 16 16 16 16 16 15 15 15 15 15 15 15 15 15 16 16 16 16 16 16 15 15 15 15 15 16 16 16 15 15 15 15 15 15 15 15 15 15 14 15 15
16 15 15 15 15 15 15 15 15 15 15 15 15 15 15 15 15 16 16 16 16 16 16 15 15 15 15 16 16 15 16 15 15 15 15 15 15 15 14 14 14 14 14
15 15 15 15 15 15 15 15 14 14 14 14 14 14 14 15 15 15 15 16 16 16 16 16 15 15 15 15 15 15 16 15 15 15 14 14 14 14 14 14 14 14 14
15 15 15 15 15 15 15 14 14 14 14 14 14 14 14 14 14 15 15 15 16 15 15 16 15 15 15 15 15 15 15 15 15 15 14 14 14 14 14 14 14 14 14
15 15 15 15 15 15 14 14 14 14 13 13 13 13 14 14 14 14 15 15 15 15 15 15 15 15 15 15 15 15 15 15 15 15 14 14 14 14 14 14 14 14 14
15 15 15 15 15 15 14 14 14 14 13 13 13 13 13 14 14 14 14 14 15 15 15 15 15 15 15 14 14 14 14 14 15 15 14 14 14 14 14 14 14 14 14
16 15 15 15 15 15 15 14 14 14 14 13 13 13 13 14 14 14 14 14 14 15 15 15 14 14 14 14 14 14 14 14 14 15 15 14 14 14 14 14 14 14 14
16 16 15 15 15 15 15 15 14 14 14 14 14 14 14 14 13 14 14 14 14 14 14 14 14 14 14 14 14 14 14 14 13 14 14 15 14 14 14 14 14 14 14
15 16 16 15 15 15 15 15 14 14 14 14 14 14 14 14 14 14 14 14 14 14 14 14 14 14 14 14 14 14 13 13 13 14 14 14 14 14 14 14 14 14 14
15 15 15 15 15 15 15 15 15 14 14 14 14 14 14 14 14 14 14 14 14 14 14 14 14 14 14 14 14 14 13 13 14 14 14 14 14 14 14 14 14 13 13
15 15 15 15 15 15 15 15 15 15 15 14 14 14 14 14 14 14 14 13 13 13 14 14 14 14 14 14 14 14 14 13 13 12 13 13 14 13 13 14 13 13 13
15 15 15 15 15 15 15 15 15 15 15 15 14 14 14 14 14 14 14 13 13 13 13 14 14 14 14 14 14 14 13 13 12 12 13 13 13 13 13 14 13 13 13
14 14 14 14 14 14 15 15 15 15 15 15 14 14 14 14 14 14 14 13 13 13 13 13 14 14 14 14 14 14 14 13 13 12 13 13 13 12 12 13 14 13 13
Wind_Speed
5 5 4 6 7 7 4 3 1 1 3 7 7 7 8 10 11 11 11 13 13 12 12 12 12 12 12 11 9 8 7 6 6 5 5 5 5 5 6 6 7 8 9
3 5 4 4 3 5 6 3 3 1 5 5 5 4 6 10 11 12 12 14 16 15 14 14 14 14 13 12 11 10 8 7 6 5 5 5 5 5 5 5 6 7 8
5 4 4 5 3 5 5 3 4 3 5 4 2 4 4 5 10 11 12 12 14 16 16 16 16 16 15 14 12 11 10 9 7 6 5 5 4 4 4 4 5 6 7
9 5 5 6 5 5 3 4 3 3 4 3 3 3 3 3 4 9 12 11 12 12 14 16 17 17 16 15 14 12 11 9 8 7 6 5 4 4 4 4 4 5 7
9 5 5 4 6 4 4 5 4 3 4 3 4 2 3 3 1 4 7 10 11 13 12 14 16 16 16 16 15 14 12 10 9 8 7 6 5 4 4 3 3 4 5
8 5 5 5 5 5 4 4 5 4 4 3 3 3 2 1 3 5 5 6 8 11 12 12 12 14 15 15 15 14 13 12 10 9 8 7 5 4 3 3 3 4 4
7 5 6 6 4 5 6 5 4 5 3 2 3 3 1 1 5 2 3 4 4 6 8 9 10 12 12 14 14 14 14 13 12 11 9 8 7 5 4 3 3 3 4
6 4 7 5 3 5 6 5 5 4 2 2 3 3 1 1 1 3 3 4 6 4 6 9 8 10 12 12 13 13 13 13 12 12 11 9 7 5 4 3 3 4 4
6 5 6 6 5 5 5 5 5 5 3 2 2 3 4 4 3 2 5 3 5 4 2 5 9 12 14 12 10 11 12 12 12 12 12 11 9 6 5 4 3 3 3
6 6 6 6 6 6 7 7 6 5 5 4 3 4 4 4 4 3 3 4 6 5 4 2 3 10 15 13 11 9 10 11 11 11 11 11 10 8 6 4 4 3 3
7 7 7 7 7 7 8 8 7 7 6 5 5 4 5 2 4 4 4 4 4 4 5 5 3 7 11 14 11 9 9 10 11 11 11 11 10 9 8 6 5 4 3
4 7 7 7 7 6 8 8 8 9 8 7 6 6 5 3 3 2 3 5 5 5 5 5 4 5 8 13 11 9 8 8 9 10 11 11 11 11 10 9 8 7 6
4 5 6 6 6 6 7 8 8 8 9 9 8 7 5 4 3 1 3 3 4 4 4 4 5 7 9 13 12 10 8 7 8 9 10 11 12 12 12 12 11 11 11
3 4 5 5 6 6 7 7 7 8 8 8 9 7 5 4 2 2 2 3 3 3 4 5 5 6 9 13 15 13 10 8 7 7 8 9 10 11 12 13 13 13 13
3 4 4 4 4 5 5 6 5 7 6 7 7 6 5 4 2 3 1 3 4 4 5 4 4 6 9 12 16 13 13 11 9 7 7 7 8 9 10 10 11 11 11
4 5 4 5 5 5 5 5 4 5 6 6 6 6 5 3 3 3 2 1 2 4 4 4 4 6 6 10 13 9 15 13 10 8 7 6 6 7 7 8 8 9 10
5 5 6 5 5 5 5 5 4 4 5 5 5 6 5 4 3 2 1 1 1 2 3 3 4 5 7 8 6 9 14 13 11 9 8 6 5 5 5 6 6 7 8
6 6 7 7 7 7 6 6 6 5 5 5 5 6 6 4 3 1 1 2 2 2 3 4 3 4 6 8 8 7 9 11 12 12 10 8 6 4 4 4 5 5 6
6 7 8 8 7 8 7 7 7 6 6 6 5 6 6 6 4 3 2 2 2 3 3 3 4 3 4 7 8 6 5 5 12 12 11 9 8 6 5 4 4 4 5
7 7 8 8 8 8 9 8 8 7 7 6 6 6 6 6 6 4 3 3 3 4 4 3 4 3 3 4 8 6 5 4 5 9 10 11 11 8 7 6 5 5 5
5 6 7 8 8 8 8 9 9 9 8 8 7 7 8 9 9 7 5 5 4 4 4 4 5 4 4 4 6 6 6 5 5 5 4 6 8 7 9 9 8 7 7
4 4 5 6 8 7 10 12 9 8 9 9 9 9 9 10 12 14 13 10 8 7 6 5 6 6 8 7 5 5 6 5 5 5 6 7 5 6 9 13 14 12 10
5 5 5 5 6 7 12 12 10 4 4 5 7 8 9 10 13 9 12 14 13 15 13 8 8 8 8 9 9 8 7 8 6 6 6 6 7 7 8 16 20 17 14
5 6 6 5 5 9 13 12 10 5 5 5 6 6 7 7 9 10 9 8 9 10 11 11 9 9 8 8 11 12 10 8 5 4 6 5 5 5 4 11 22 19 17
5 5 5 5 5 8 12 12 10 5 5 6 6 5 3 3 4 8 6 7 7 6 6 9 9 6 4 5 6 7 8 7 5 4 5 4 5 4 4 6 14 20 18
4 4 4 5 6 7 12 13 11 4 4 4 3 2 2 3 3 5 4 5 6 5 4 4 5 5 5 5 7 8 9 7 5 5 6 5 4 5 4 4 6 14 15
Wind_Direction
174 161 173 172 196 177 177 221 193 43 44 42 56 86 96 93 92 86 80 81 82 83 86 86 84 82 80 80 82 88 98 102 103 100 95 88 78 69 59 47 37 27 21
187 162 179 164 201 170 180 181 136 115 71 58 43 61 104 113 112 111 100 86 83 83 85 86 84 81 80 80 79 79 82 88 92 94 92 90 86 79 69 56 44 32 25
196 162 180 165 204 186 175 159 124 102 106 123 103 73 66 111 134 131 123 109 91 82 84 85 82 79 77 76 77 75 75 77 80 83 85 88 91 90 82 71 55 38 31
202 170 181 171 196 183 154 119 122 112 112 123 99 81 83 41 111 141 139 132 117 98 87 87 84 79 74 71 71 72 72 73 74 75 75 79 87 95 94 86 68 47 37
206 174 178 181 187 163 149 152 155 138 134 107 92 53 89 92 356 110 124 122 124 124 114 99 91 83 77 71 66 65 67 69 69 70 70 73 82 95 99 97 81 58 45
211 179 159 204 185 153 151 156 144 122 117 134 143 100 64 117 75 45 75 103 117 129 139 133 113 92 82 73 66 62 62 65 67 65 66 68 73 86 96 103 93 75 59
214 180 169 202 192 153 154 157 131 126 126 148 91 74 356 338 107 144 124 105 102 126 135 134 135 125 97 75 66 61 58 60 63 63 63 63 63 69 75 96 99 92 77
220 194 176 180 168 140 148 148 123 135 157 160 130 138 193 309 309 171 116 141 162 163 147 138 132 127 117 96 72 63 56 55 59 59 59 58 58 61 67 83 99 101 92
216 202 194 179 172 153 155 155 144 148 173 224 166 160 177 197 200 194 188 188 141 141 167 151 149 128 113 107 87 67 61 55 56 56 53 52 52 55 65 79 96 109 106
212 204 201 190 179 163 163 173 166 157 162 208 251 237 216 170 165 186 207 183 161 174 148 117 109 116 121 115 104 86 72 62 57 53 50 48 48 54 64 77 85 104 116
211 203 202 200 192 173 174 176 172 168 173 189 221 252 261 230 205 150 183 192 173 176 164 170 140 119 129 132 118 101 83 71 63 56 50 47 47 52 62 74 77 84 89
207 211 208 203 199 186 183 183 182 181 186 191 209 232 241 230 234 164 170 182 181 192 166 155 147 137 136 130 127 121 100 84 74 64 56 51 50 52 57 68 73 73 68
199 213 208 206 202 198 191 187 187 189 189 192 203 221 231 238 245 232 165 175 179 184 157 159 168 156 154 138 141 142 128 108 90 76 67 61 58 58 60 63 67 67 65
175 189 198 199 195 192 192 191 192 193 191 191 199 208 221 227 254 263 177 151 149 183 183 186 170 164 171 157 162 159 150 136 114 94 80 71 67 65 64 64 63 63 63
159 158 161 166 170 176 183 185 194 194 190 192 190 197 211 210 236 266 243 154 154 177 214 206 160 176 165 146 166 172 162 156 137 119 100 84 78 74 72 70 66 64 62
124 133 144 148 156 163 177 181 177 182 184 189 183 185 189 192 212 253 273 232 153 167 205 210 188 170 157 156 181 189 158 158 149 139 126 108 94 87 82 75 69 62 59
151 159 154 154 156 158 163 162 164 170 184 187 175 168 168 170 203 229 269 285 252 187 210 229 201 165 154 157 154 150 159 162 160 158 150 138 123 107 97 87 78 70 65
168 168 159 166 169 168 168 167 167 165 166 168 161 155 154 159 181 207 253 263 264 248 219 225 209 178 172 167 161 177 177 181 164 172 169 164 157 146 129 115 100 88 81
177 173 166 170 176 175 176 176 175 172 171 166 164 161 160 160 174 187 213 244 258 269 253 226 219 203 195 172 163 185 189 170 164 172 176 180 179 175 167 153 136 122 111
189 182 178 177 179 179 180 178 179 179 179 178 178 179 179 179 185 187 207 226 239 254 258 252 229 197 210 184 166 176 192 188 167 171 181 183 188 190 191 183 170 159 146
211 192 184 180 177 180 186 183 185 186 189 191 194 200 203 203 208 207 212 216 221 230 239 241 234 198 195 193 192 180 184 181 199 176 161 176 179 193 203 202 191 179 169
223 227 200 184 179 186 174 175 184 192 197 199 202 207 211 212 220 223 228 229 225 227 228 233 234 215 205 202 198 187 174 171 209 195 170 190 180 199 203 203 195 184 179
218 234 233 203 182 164 165 171 184 198 211 212 207 207 216 216 212 217 227 235 240 240 233 231 237 232 214 200 196 199 196 195 204 188 167 195 190 204 201 196 186 183 181
225 228 241 226 183 173 174 174 176 199 230 241 236 225 216 215 205 206 215 221 231 238 233 229 233 235 225 206 196 201 203 203 209 172 158 186 184 192 159 165 179 183 184
251 228 228 228 203 174 176 172 168 195 229 246 247 240 231 236 198 191 203 221 238 250 236 219 220 213 202 212 206 185 185 187 193 189 188 186 174 171 161 169 188 189 188
285 261 239 220 202 183 181 179 179 195 226 248 263 255 214 195 157 173 208 223 232 240 223 193 206 204 202 203 200 187 183 186 186 185 188 187 171 150 182 183 177 189 192
Height
1531 1532 1533 1535 1536 1538 1539 1540 1542 1542 1542 1542 1542 1542 1541 1541 1541 1540 1540 1540 1540 1540 1540 1540 1541 1541 1542 1542 1543 1544 1544 1545 1546 1547 1548 1548 1549 1550 1550 1550 1550 1550 1549
1530 1531 1533 1534 1536 1538 1539 1541 1542 1543 1542 1542 1543 1543 1543 1542 1542 1541 1541 1541 1541 1541 1541 1541 1541 1542 1542 1542 1543 1544 1544 1545 1545 1546 1547 1547 1548 1549 1549 1550 1550 1550 1549
1528 1530 1532 1533 1535 1537 1539 1540 1542 1543 1543 1543 1544 1544 1544 1544 1543 1543 1542 1542 1542 1542 1542 1542 1542 1542 1543 1543 1543 1543 1544 1544 1545 1545 1546 1546 1547 1548 1548 1549 1549 1549 1549
1527 1528 1530 1532 1534 1536 1538 1539 1541 1542 1543 1544 1545 1545 1545 1545 1545 1545 1544 1544 1543 1543 1543 1543 1543 1543 1543 1544 1544 1544 1544 1544 1544 1545 1545 1545 1546 1546 1547 1548 1548 1549 1548
1524 1526 1528 1530 1532 1534 1536 1538 1540 1541 1543 1544 1545 1546 1546 1546 1546 1547 1546 1545 1545 1544 1544 1544 1544 1544 1544 1544 1544 1544 1544 1544 1544 1544 1544 1544 1545 1545 1546 1547 1547 1548 1548
1521 1524 1526 1528 1531 1532 1534 1536 1538 1540 1542 1543 1545 1546 1546 1547 1547 1547 1547 1547 1546 1545 1545 1545 1545 1545 1545 1545 1545 1545 1544 1544 1544 1543 1543 1544 1544 1544 1545 1546 1546 1547 1547
1518 1521 1522 1525 1528 1529 1531 1533 1536 1537 1540 1542 1544 1545 1546 1547 1546 1547 1548 1547 1547 1546 1546 1546 1545 1545 1545 1545 1545 1545 1545 1544 1544 1544 1543 1543 1543 1544 1544 1544 1545 1546 1546
1515 1517 1519 1522 1524 1526 1528 1530 1532 1534 1537 1539 1541 1543 1545 1547 1546 1547 1547 1548 1547 1547 1547 1547 1547 1546 1545 1546 1545 1545 1545 1545 1544 1544 1543 1543 1543 1543 1543 1543 1544 1545 1545
1511 1513 1516 1518 1520 1522 1524 1527 1529 1531 1534 1536 1539 1541 1542 1543 1544 1546 1546 1547 1547 1548 1548 1548 1547 1546 1546 1546 1546 1545 1545 1545 1544 1543 1543 1543 1543 1542 1542 1543 1543 1544 1544
1508 1509 1511 1514 1516 1518 1520 1523 1525 1527 1530 1532 1535 1537 1539 1540 1541 1543 1545 1546 1546 1547 1548 1548 1548 1547 1546 1546 1546 1545 1545 1545 1544 1543 1543 1542 1542 1542 1541 1542 1542 1542 1543
1504 1505 1507 1509 1511 1513 1515 1518 1521 1523 1525 1528 1531 1533 1535 1537 1538 1540 1541 1544 1545 1546 1546 1547 1547 1546 1545 1545 1545 1545 1545 1544 1544 1543 1542 1542 1541 1541 1541 1541 1541 1542 1542
1500 1501 1503 1504 1506 1508 1510 1513 1515 1518 1520 1523 1526 1529 1531 1533 1535 1537 1538 1540 1542 1543 1544 1545 1545 1545 1544 1544 1544 1544 1544 1544 1543 1543 1542 1541 1541 1540 1540 1540 1540 1541 1541
1497 1498 1499 1500 1501 1503 1505 1508 1510 1512 1515 1518 1521 1523 1526 1529 1532 1534 1535 1537 1539 1541 1542 1543 1543 1543 1543 1543 1543 1543 1543 1543 1543 1542 1542 1541 1540 1539 1539 1539 1539 1540 1540
1494 1495 1495 1496 1497 1499 1501 1502 1504 1507 1509 1512 1515 1518 1521 1524 1527 1530 1532 1534 1536 1538 1539 1540 1541 1541 1542 1541 1542 1542 1542 1542 1542 1541 1541 1540 1539 1538 1538 1539 1539 1539 1539
1492 1492 1492 1493 1494 1495 1496 1498 1500 1502 1504 1507 1509 1513 1516 1519 1522 1525 1528 1530 1533 1534 1536 1538 1538 1539 1539 1540 1540 1540 1541 1541 1541 1540 1540 1539 1538 1538 1538 1538 1538 1538 1538
1490 1490 1490 1491 1491 1492 1493 1494 1496 1497 1499 1502 1505 1508 1511 1514 1517 1521 1524 1526 1529 1531 1533 1535 1536 1536 1537 1538 1539 1538 1538 1539 1539 1539 1539 1538 1537 1537 1537 1537 1537 1538 1538
1488 1488 1489 1489 1490 1490 1491 1492 1493 1494 1496 1498 1500 1503 1506 1508 1513 1516 1519 1522 1525 1527 1529 1531 1533 1534 1534 1535 1536 1536 1537 1537 1538 1538 1537 1537 1536 1536 1536 1536 1536 1536 1537
1487 1488 1488 1489 1489 1489 1490 1491 1492 1493 1494 1495 1497 1499 1502 1505 1509 1512 1515 1518 1521 1523 1526 1527 1529 1530 1531 1532 1533 1534 1534 1535 1535 1536 1536 1536 1535 1535 1535 1535 1535 1535 1535
1486 1487 1488 1488 1488 1489 1489 1490 1491 1492 1493 1494 1495 1497 1499 1502 1505 1508 1511 1514 1517 1519 1521 1523 1525 1527 1528 1529 1530 1531 1532 1532 1532 1533 1533 1533 1533 1533 1533 1533 1533 1533 1534
1485 1486 1486 1487 1487 1488 1488 1489 1490 1491 1492 1493 1495 1496 1498 1500 1503 1505 1508 1511 1513 1515 1517 1519 1521 1522 1524 1526 1526 1527 1528 1529 1529 1530 1531 1531 1532 1531 1531 1531 1531 1531 1531
1483 1484 1485 1485 1485 1486 1487 1488 1489 1490 1491 1492 1494 1495 1497 1498 1500 1502 1504 1506 1509 1511 1513 1515 1517 1518 1519 1521 1522 1523 1524 1525 1526 1527 1527 1528 1529 1529 1529 1529 1529 1529 1529
1480 1482 1482 1483 1483 1484 1485 1487 1488 1489 1490 1491 1492 1493 1495 1496 1497 1499 1501 1503 1505 1507 1508 1510 1512 1513 1514 1516 1518 1519 1520 1521 1522 1523 1524 1525 1526 1526 1526 1527 1527 1526 1527
1477 1478 1479 1480 1481 1482 1483 1485 1486 1487 1488 1490 1491 1491 1492 1493 1495 1496 1497 1499 1500 1502 1504 1506 1507 1508 1510 1511 1512 1514 1515 1516 1517 1519 1520 1521 1522 1522 1523 1523 1524 1524 1524
1474 1474 1476 1477 1478 1479 1480 1482 1483 1485 1486 1487 1488 1489 1490 1491 1491 1492 1493 1494 1495 1497 1498 1500 1501 1503 1505 1506 1507 1508 1510 1512 1515 1516 1517 1517 1518 1519 1520 1520 1521 1521 1521
1470 1471 1472 1474 1475 1476 1477 1478 1480 1482 1483 1485 1486 1487 1487 1488 1488 1489 1490 1491 1491 1492 1494 1495 1496 1497 1499 1500 1502 1503 1504 1506 1508 1510 1512 1514 1514 1516 1516 1516 1518 1518 1518
1467 1468 1469 1470 1471 1472 1474 1476 1477 1479 1480 1482 1483 1484 1484 1485 1485 1485 1486 1486 1487 1488 1490 1491 1492 1493 1494 1495 1496 1498 1499 1501 1502 1504 1506 1509 1510 1512 1512 1512 1513 1514 1514